THOR ABLESTAR DEB, 3932

Orbit data source: Space-Track

THOR ABLESTAR DEB, 3932 is space debris in LEO originally from a launch on Thu, 29 Jun 1961 UTC launched from the Air Force Eastern Test Range (AFETR). Debris objects in space refer to the collection of defunct objects orbiting the Earth. Examples of debris include non-operational satellites, rocket bodies, and fragments generated from explosions, collisions, or faulty payload assembly.

Loading next visibility...
Identifier
3932, 1961-015JG
Orbit
LEO
Country
Flag of USUS
Related business
Manufacturer
Unknown
Mission
Spacecraft
Bus & Motor
Unknown
Mass
Unknown
Launch date (UTC)
1961-06-29 (65 years ago)
Launch vehicle
Unknown
Launch site
Air Force Eastern Test Range (AFETR)
Object type
Payload
Rocket body
Debris
Shape & HBR
Unknown shape, 0.1 m
Radar Cross Section
Small (<0.1 m²)

Expand to show TLE details & history
Last TLE update: 12 hours ago

TLE from 12 hours ago
0 THOR ABLESTAR DEB
1 03932U 61015JG  26105.06562657  .00000143  00000-0  39509-3 0  9998
2 03932  65.7990 211.8202 0278475 144.5224  32.6495 13.25954746143436
Epoch: 2026-04-15T01:34Z
TLE epoch observation values (Epoch: 2026-04-15T01:34:30.135Z)
Latitude
0.87189°
Longitude
164.57192°
Altitude
988.835 km
Speed
7.443 km/s
True Right ascension
02h 05m 43s
True Declination
0° 52' 01"
Sunlit
Object was in daylight at epoch
Visualization orbit readout
Latitude
Unknown
Longitude
Unknown
Altitude
Unknown
Speed
Unknown
Apparent Right ascension
Unknown
Apparent Declination
Unknown
Sunlit
N/A
Visualization observer readout
Local Sidereal Time
20:23:59
Azimuth
Unknown
Elevation
Unknown
Doppler factor
Unknown
Orbital elements
Apogee altitude
1,370.551 km
Perigee altitude
950.68 km
Semi-major axis
7,538.752 km
Eccentricity
0.02785
Inclination
65.799°
RAAN
211.8202°
Arg. of periapsis
144.5224°
True anomaly
34.42272°
Mean anomaly
32.6495°
Eccentric anomaly
33.53086°
Mean motion
3.31584 °/min
Orbital period
108.57 mins
BSTAR
0.00039509

Documentation

Showing up to 5 results
|